Location: Burera
(21.3780°N, 81.9534°E)
Time: 01:08:05
(UTC+00:00)

VEP-3 - Pass Details

Date: 13 August 2020
Orbit: 1003 x 33740 km, 23.8° (Epoch: 22 September)

Event Time Altitude Azimuth Distance (km) Brightness Sun altitude
Rises 14:49:54 0° 280° (W) 3,714 6.8 -23.8°
Reaches altitude 10° 14:51:50 10° 277° (W) 2,852 5.9 -24.2°
Maximum altitude 14:57:27 69° 194° (SSW) 1,629 3.5 -25.4°
Enters shadow 15:01:59 39° 124° (ESE) 3,054 4.5 -26.3°
